GAOFEN-8

Last updated on Mon Sep 21 2026 00:02:45 GMT+0000 (Coordinated Universal Time)

1 40701U 15030A 26263.58911216 .00015726 00000+0 29036-3 0 9996 2 40701 97.6856 102.9119 0007492 200.6700 159.4248 15.49160543626202
UTC large
Height (km)
Speed (km/s)
/
Latitude / Longitude
Inclination (degrees)
Orbital Period (minutes)
Azimuth
Elevation
Range (km)
Doppler Factor

Next 0 passes for location: London (51.5072 / 0.1276)

No passes found over London.
GAOFEN-8